Weather Roundup
Issued by NWS Springfield, MO

Home | Current Version | Previous Version | Text Only | Print | Product List | Glossary On
Versions: 1 2 3 4 5 6 7 8 9 10 11 12 13 14 15 16 17 18 19 20 21 22 23 24 25 26 27 28 29 30 31 32 33 34 35 36 37 38 39 40 41 42 43 44 45 46 47 48 49 50
000
NZUS99 KSGF 041010
HRRSGF

HOURLY WEATHER
NATIONAL WEATHER SERVICE SPRINGFIELD MO
500 AM CDT TUE AUG 04 2015

......SGF CWA......

CITY           SKY/WX    TMP DP  RH WIND       PRES   REMARKS
SPRINGFIELD    CLEAR     71  67  87 S5        29.96S
JOPLIN         PTCLDY    72  65  78 S5        29.95R
WEST PLAINS    CLEAR     70  66  87 CALM      30.00R
ROLLA          CLEAR     69  68  96 SW7       29.96R
OSAGE BEACH    CLEAR     70  66  88 CALM      29.97R
BRANSON        CLEAR     70  66  88 CALM      29.99S

......SURROUNDING SGF CWA......

CITY           SKY/WX    TMP DP  RH WIND       PRES   REMARKS
CHANUTE        MOCLDY    69  67  93 SE6       29.93F
PARSONS        MOCLDY    68  67  96 CALM      29.94S
COFFEYVILLE    MOCLDY    69  67  93 CALM      29.92S
EMPORIA        MOCLDY    70  67  90 S9        29.92S
GROVE OK       PTCLDY    70  70 100 CALM      29.95R
ROGERS AR      CLEAR     72  68  87 SE5       29.99R
SILOAM SPRINGS PTCLDY    70  63  78 SE5       29.96S
HARRISON AR    CLEAR     68  67  96 SE3       29.99S
NEAR YELLVILLE CLEAR     70  66  88 CALM      29.95S

......KANSAS AND MISSOURI......

CITY           SKY/WX    TMP DP  RH WIND       PRES   REMARKS
KANSAS CTY INT MOCLDY    73  67  81 SE10      29.94S
DOWNTOWN KC    CLEAR     74  68  81 E7        29.93R
COLUMBIA       PTCLDY    71  66  84 NE7       29.97R
SEDALIA        PTCLDY    73  69  87 E7        29.98R
ST JOSEPH      PTCLDY    72  66  81 E8        29.96R
ST LOUIS       CLOUDY    77  65  66 NE7       29.96R
SPIRIT OF STL  PTCLDY    73  71  93 CALM      29.95R
KIRKSVILLE     CLOUDY    67  63  87 E6        29.97F
WICHITA        CLOUDY    74  67  78 SE5       29.92F
TOPEKA         PTCLDY    73  70  90 CALM      29.92R
OLATHE         PTCLDY    71  68  90 SE6       29.94R

......TENNESSEE......

CITY           SKY/WX    TMP DP  RH WIND       PRES   REMARKS
MEMPHIS        PTCLDY    78  70  76 CALM      29.96R
NASHVILLE      PTCLDY    73  68  84 S6        29.97S

......ARKANSAS.......

CITY           SKY/WX    TMP DP  RH WIND       PRES   REMARKS
FAYETTEVILLE   PTCLDY    66  66 100 CALM      29.98S
FT SMITH       MOCLDY    75  69  81 NE6       29.94R
LITTLE ROCK    PTCLDY    75  70  84 CALM      29.95S

......OKLAHOMA.......

CITY           SKY/WX    TMP DP  RH WIND       PRES   REMARKS
TULSA          CLOUDY    76  70  82 SE3       29.91R
PONCA CITY     CLOUDY    78  67  68 SE10      29.91F
MCALESTER      MOCLDY    79  63  57 CALM      29.94R
OKLAHOMA CITY  CLOUDY    75  69  81 W5        29.95R

......IOWA............

CITY           SKY/WX    TMP DP  RH WIND       PRES   REMARKS
DES MOINES     PTCLDY    68  59  73 CALM      29.96R
QUAD CITIES    CLEAR     59  55  87 SW5       29.95S

......ILLINOIS........

CITY           SKY/WX    TMP DP  RH WIND       PRES   REMARKS
QUINCY         CLOUDY    65  61  87 CALM      29.97R
CHICAGO        CLEAR     63  55  75 W3        29.92S



USA.gov is the U.S. government's official web portal to all federal, state and local government web resources and services.